Location: Bruderhein
(53.8035°N, 112.9265°W)
Time: 09:54:58
(UTC+00:00)

Meteor 1-19 Rocket - Pass Details

Date: 08 December 2023
Orbit: 806 x 928 km, 81.2° (Epoch: 04 March)

Event Time Altitude Azimuth Distance (km) Brightness Sun altitude
Exits shadow 11:14:12 - 356° (N) 3,285 7.3 -37.1°
Maximum altitude 11:19:33 11° 41° (NE) 2,545 7.2 -36.3°
Drops below altitude 10° 11:21:18 10° 58° (ENE) 2,626 7.4 -36.0°
Sets 11:26:02 0° 92° (E) 3,543 8.4 -35.4°
